FW1302 Weather Reports


Display with metric or nautical units.
time (UTC)temp
F
wind
direction
speed
MPH
gust
MPH
rain 1hr
in
rain 24hr
in
rain mn
in
humidity
%
barometer
mb
20260906214014 60 209 4.0 6.0 0.00 0.00 0.00 90 1028.0
20260906213013 60 225 4.0 5.0 0.00 0.00 0.00 91 1027.7
20260906212014 60 225 4.0 5.0 0.00 0.00 0.00 92 1027.9
20260906211014 59 225 1.0 2.0 0.00 0.00 0.00 92 1027.8
20260906210112 59 225 3.0 4.0 0.00 0.00 0.00 92 1027.7
20260906205114 59 219 3.0 3.0 0.00 0.00 0.00 91 1027.7
20260906203211 59 225 2.0 3.0 0.00 0.00 0.00 93 1027.8
20260906202212 59 90 0.0 0.0 0.00 0.00 0.00 93 1027.8
20260906201312 59 90 0.0 0.0 0.00 0.00 0.00 94 1027.7
20260906195413 59 90 0.0 0.0 0.00 0.00 0.00 94 1027.7
20260906194414 59 90 0.0 0.0 0.00 0.00 0.00 94 1027.6
20260906193413 59 90 0.0 0.0 0.00 0.00 0.00 95 1027.7
20260906192414 59 90 0.0 0.0 0.00 0.00 0.00 94 1027.7
20260906191415 59 90 0.0 0.0 0.00 0.00 0.00 95 1027.6
20260906190414 59 90 0.0 0.0 0.00 0.00 0.00 95 1027.6
20260906185415 59 90 0.0 0.0 0.00 0.00 0.00 94 1027.7
20260906183513 59 90 0.0 0.0 0.00 0.00 0.00 95 1027.6
20260906181614 59 90 0.0 0.0 0.00 0.00 0.00 96 1027.6
20260906180616 59 90 0.0 0.0 0.00 0.00 0.00 95 1027.6
20260906175612 58 90 0.0 0.0 0.00 0.00 0.00 95 1027.6
20260906175513 58 90 0.0 0.0 0.00 0.00 0.00 95 1027.6
20260906174612 58 90 0.0 0.0 0.00 0.00 0.00 94 1027.7
20260906173613 57 90 1.0 3.0 0.00 0.00 0.00 95 1027.6
20260906172612 57 97 0.0 4.0 0.00 0.00 0.00 96 1027.6
20260906171614 57 67 0.0 1.0 0.00 0.00 0.00 96 1027.5
20260906165712 57 67 2.0 3.0 0.00 0.00 0.00 96 1027.6
20260906164714 57 360 0.0 2.0 0.00 0.00 0.00 96 1027.6
20260906162812 57 360 0.0 0.0 0.00 0.00 0.00 95 1027.6
20260906162715 57 360 0.0 0.0 0.00 0.00 0.00 95 1027.5
20260906161714 57 360 0.0 0.0 0.00 0.00 0.00 96 1027.5
20260906160714 57 360 0.0 0.0 0.00 0.00 0.00 96 1027.5
20260906155712 56 337 0.0 0.0 0.00 0.00 0.00 95 1027.4
20260906153713 56 337 0.0 0.0 0.00 0.00 0.00 95 1027.3
20260906152714 57 337 0.0 0.0 0.00 0.00 0.00 95 1027.4
20260906151714 57 337 0.0 0.0 0.00 0.00 0.00 95 1027.3
20260906150715 57 337 0.0 0.0 0.00 0.00 0.00 95 1027.2
20260906150613 57 337 0.0 0.0 0.00 0.00 0.00 95 1027.3
20260906144712 57 180 0.0 0.0 0.00 0.00 0.00 95 1026.9
20260906143811 56 180 0.0 0.0 0.00 0.00 0.00 96 1026.9
20260906141912 56 180 0.0 0.0 0.00 0.00 0.00 96 1026.8
20260906135914 56 180 0.0 0.0 0.00 0.00 0.00 96 1026.5
20260906133914 56 180 0.0 0.0 0.00 0.00 0.00 95 1026.3
20260906132914 56 180 0.0 0.0 0.00 0.00 0.00 96 1026.2
20260906131914 56 180 0.0 0.0 0.00 0.00 0.00 95 1026.3
20260906130912 56 180 0.0 0.0 0.00 0.00 0.00 94 1026.2
20260906125912 56 202 2.0 3.0 0.00 0.00 0.00 94 1026.0
20260906124914 56 90 0.0 0.0 0.00 0.00 0.00 95 1026.1
20260906124013 56 90 0.0 0.0 0.00 0.00 0.00 95 1026.1
20260906123012 57 90 0.0 0.0 0.00 0.00 0.00 95 1026.0
20260906122013 56 90 0.0 0.0 0.00 0.00 0.00 95 1026.0
20260906121016 56 90 0.0 0.0 0.00 0.00 0.00 95 1026.1
20260906115113 56 90 0.0 1.0 0.00 0.00 0.00 94 1026.2
20260906114212 56 90 1.0 2.0 0.00 0.00 0.00 93 1026.4
20260906113311 56 90 1.0 2.0 0.00 0.00 0.00 93 1026.2
20260906112313 56 90 0.0 0.0 0.00 0.00 0.00 93 1026.3
20260906111315 56 90 2.0 2.0 0.00 0.00 0.00 93 1026.5
20260906110412 56 90 0.0 1.0 0.00 0.00 0.00 93 1026.6
20260906105415 56 45 0.0 1.0 0.00 0.00 0.00 93 1026.6
20260906104513 57 45 0.0 0.0 0.00 0.00 0.00 93 1026.8
20260906103613 57 45 0.0 0.0 0.00 0.00 0.00 93 1026.6
20260906102614 57 45 0.0 0.0 0.00 0.00 0.00 92 1026.9
20260906100614 57 90 0.0 1.0 0.00 0.00 0.00 92 1026.9
20260906095512 57 90 2.0 3.0 0.00 0.00 0.00 92 1026.8
20260906094514 57 90 1.0 2.0 0.00 0.00 0.00 90 1026.6
20260906093513 57 90 2.0 4.0 0.00 0.00 0.00 90 1026.8
20260906092514 58 67 0.0 1.0 0.00 0.00 0.00 87 1026.7
20260906090514 58 45 0.0 0.0 0.00 0.00 0.00 86 1026.7
20260906085611 58 90 1.0 2.0 0.00 0.00 0.00 86 1026.5
20260906084614 58 90 2.0 3.0 0.00 0.00 0.00 86 1026.5
20260906083615 59 25 0.0 2.0 0.00 0.00 0.00 86 1026.5
20260906082712 59 337 1.0 2.0 0.00 0.00 0.00 85 1026.5
20260906081713 58 185 0.0 2.0 0.00 0.00 0.00 84 1026.3
20260906080715 59 225 0.0 0.0 0.00 0.00 0.00 84 1026.2
20260906075813 59 225 3.0 4.0 0.00 0.00 0.00 84 1026.3
20260906073911 59 42 5.0 6.0 0.00 0.00 0.00 83 1026.3
20260906072930 59 90 1.0 2.0 0.00 0.00 0.00 82 1026.4
20260906071914 59 90 0.0 0.0 0.00 0.00 0.00 82 1026.6
20260906070914 59 90 0.0 0.0 0.00 0.00 0.00 84 1026.6
20260906065913 59 45 1.0 2.0 0.00 0.00 0.00 84 1026.3
20260906065011 59 90 0.0 1.0 0.00 0.00 0.00 84 1026.2
20260906064012 58 90 1.0 2.0 0.00 0.00 0.00 86 1026.6
20260906063010 59 22 0.0 0.0 0.00 0.00 0.00 84 1026.6
20260906061011 59 22 0.0 0.0 0.00 0.00 0.00 85 1026.7
20260906060011 59 360 0.0 0.0 0.00 0.00 0.00 84 1026.5
20260906055013 58 180 0.0 0.0 0.00 0.00 0.00 83 1026.8
20260906053012 59 180 1.0 1.0 0.00 0.00 0.00 82 1026.7
20260906052012 59 180 0.0 0.0 0.00 0.00 0.00 82 1026.9
20260906050014 59 157 2.0 2.0 0.00 0.00 0.00 81 1026.9
20260906045012 59 180 0.0 0.0 0.00 0.00 0.00 81 1027.0
20260906044010 59 270 0.0 0.0 0.00 0.00 0.00 82 1027.0
20260906043110 59 225 0.0 0.0 0.00 0.00 0.00 81 1027.0
20260906042012 60 225 0.0 0.0 0.00 0.00 0.00 82 1027.2
20260906040012 60 225 1.0 2.0 0.00 0.00 0.00 79 1027.0
20260906035111 61 157 0.0 0.0 0.00 0.00 0.00 79 1026.7
20260906034111 61 157 0.0 0.0 0.00 0.00 0.00 78 1026.7
20260906033211 61 180 0.0 0.0 0.00 0.00 0.00 78 1026.6
20260906032212 62 270 0.0 1.0 0.00 0.00 0.00 77 1026.5
20260906031212 63 314 3.0 4.0 0.00 0.00 0.00 76 1026.3
20260906030211 63 305 2.0 4.0 0.00 0.00 0.00 77 1025.9
20260906030111 63 319 5.0 9.0 0.00 0.00 0.00 77 1026.1
20260906025112 63 360 0.0 0.0 0.00 0.00 0.00 77 1026.2
20260906024210 63 193 0.0 4.0 0.00 0.00 0.00 74 1026.1
20260906023215 65 180 0.0 0.0 0.00 0.00 0.00 73 1026.0
20260906022210 67 270 0.0 0.0 0.00 0.00 0.00 73 1025.9
20260906021211 68 270 1.0 1.0 0.00 0.00 0.00 69 1025.9
20260906020209 67 270 0.0 1.0 0.00 0.00 0.00 71 1025.8
20260906015211 67 270 3.0 4.0 0.00 0.00 0.00 68 1025.8
20260906014311 74 274 4.0 4.0 0.00 0.00 0.00 50 1025.8
20260906013312 75 337 0.0 0.0 0.00 0.00 0.00 48 1026.0
20260906012314 75 337 0.0 0.0 0.00 0.00 0.00 49 1026.0
20260906011411 75 337 0.0 0.0 0.00 0.00 0.00 50 1026.0
20260906010412 74 270 0.0 0.0 0.00 0.00 0.00 53 1025.9
20260906005412 73 270 0.0 0.0 0.00 0.00 0.00 56 1026.0
20260906004509 70 270 1.0 1.0 0.00 0.00 0.00 60 1026.2
20260906003412 70 270 2.0 2.0 0.00 0.00 0.00 61 1026.4
20260906001510 68 270 3.0 5.0 0.00 0.00 0.00 64 1026.1
20260906000511 67 270 2.0 4.0 0.00 0.00 0.00 64 1026.2
20260905235610 68 249 6.0 7.0 0.00 0.00 0.00 65 1026.3
20260905234612 68 225 3.0 4.0 0.00 0.00 0.00 64 1026.4
20260905233612 67 247 4.0 5.0 0.00 0.00 0.00 68 1026.3
20260905231709 68 225 2.0 3.0 0.00 0.00 0.00 65 1026.4
20260905230711 68 218 1.0 3.0 0.00 0.00 0.00 66 1026.4
20260905225711 68 225 0.0 0.0 0.00 0.00 0.00 67 1026.3
20260905223813 67 247 1.0 2.0 0.00 0.00 0.00 71 1026.5
20260905222811 66 202 0.0 0.0 0.00 0.00 0.00 69 1026.4
20260905221812 67 225 3.0 4.0 0.00 0.00 0.00 66 1026.6
20260905220812 67 202 0.0 3.0 0.00 0.00 0.00 64 1026.4
20260905215912 67 225 2.0 3.0 0.00 0.00 0.00 68 1026.4
20260905215011 66 202 1.0 3.0 0.00 0.00 0.00 73 1026.5